This demonstration page uses our WeatherBlox Daily Observations layout. Learn more.

Left ArrowRight Arrow

39.29038, -76.61219

Hourly Observations for September 29, 2020

Temp ( °F °C ) Dew Point ( °F °C ) Humidity (%) Winds ( mph kmh ) Pressure ( in mb ) Visibility ( mi km ) Precip ( " mm )
12:54 am 00:54 Partly Cloudy 71 21.7 66 18.9 84 84 SSE 6 9 29.85 1011 10 16 0.00 0.00
1:54 am 01:54 Mostly Clear 70 21.1 66 18.9 87 87 VRB 3 6 29.85 1011 10 16 0.00 0.00
2:54 am 02:54 Partly Cloudy 69 20.6 66 18.9 90 90 VRB 3 6 29.83 1010 10 16 0.00 0.00
3:16 am 03:16 Mostly Cloudy 69 20.6 66 18.9 90 90 Calm 29.85 1011 10 16 0.00 0.00
3:54 am 03:54 Partly Cloudy 69 20.6 66 18.9 90 90 SSE 3 6 29.83 1010 10 16 0.00 0.00
4:54 am 04:54 Partly Cloudy 68 20 66 18.9 93 93 VRB 6 9 29.83 1010 10 16 0.00 0.00
5:11 am 05:11 Mostly Cloudy 69 20.6 66 18.9 90 90 S 5 7 29.83 1010 10 16 0.00 0.00
5:30 am 05:30 Partly Cloudy 69 20.6 66 18.9 90 90 VRB 3 6 29.83 1010 10 16 0.00 0.00
5:54 am 05:54 Partly Cloudy 68 20 66 18.9 93 93 Calm 29.83 1010 10 16 0.00 0.00
6:54 am 06:54 Partly Cloudy 69 20.6 66 18.9 90 90 S 9 15 29.83 1010 10 16 0.00 0.00
7:54 am 07:54 Mostly Cloudy with Mist and Fog 70 21.1 67 19.4 90 90 SSW 6 9 29.84 1010 6 10 0.00 0.00
8:54 am 08:54 Mostly Cloudy 71 21.7 67 19.4 87 87 S 5 7 29.85 1011 7 11 0.00 0.00
9:09 am 09:09 Mostly Cloudy 72 22.2 67 19.4 84 84 S 6 9 29.85 1011 7 11 0.00 0.00
9:54 am 09:54 Cloudy 72 22.2 67 19.4 84 84 VRB 3 6 29.84 1011 7 11 0.00 0.00
10:54 am 10:54 Mostly Cloudy 76 24.4 68 20 77 77 VRB 3 6 29.84 1011 10 16 0.00 0.00
11:54 am 11:54 Cloudy 76 24.4 68 20 77 77 SW 3 6 29.82 1010 10 16 0.00 0.00
12:54 pm 12:54 Mostly Cloudy 78 25.6 66 18.9 67 67 SSW 5 7 29.81 1010 10 16 0.00 0.00
1:54 pm 13:54 Mostly Cloudy 80 26.7 67 19.4 64 64 VRB 5 7 29.78 1008 10 16 0.00 0.00
2:54 pm 14:54 Mostly Cloudy 81 27.2 65 18.3 58 58 SSE 7 11 29.74 1007 10 16 0.00 0.00
3:54 pm 15:54 Mostly Cloudy 79 26.1 69 20.6 72 72 SE 9 15 29.72 1007 10 16 0.00 0.00
4:54 pm 16:54 Mostly Cloudy 77 25 69 20.6 77 77 ESE 14 22 29.70 1006 10 16 0.00 0.00
5:42 pm 17:42 Mostly Cloudy 76 24.4 69 20.6 79 79 SSE 6 9 29.69 1006 10 16 0.00 0.00
5:54 pm 17:54 Mostly Cloudy 76 24.4 69 20.6 79 79 SSE 8 13 29.70 1006 10 16 0.00 0.00
6:04 pm 18:04 Cloudy 75 23.9 68 20 79 79 undefined N/A 29.69 1006 10 16 0.00 0.00
6:54 pm 18:54 Cloudy 68 20 62 16.7 81 81 NW 10 17 29.70 1006 10 16 0.00 0.00
7:01 pm 19:01 Cloudy 67 19.4 62 16.7 84 84 NW 7 11 29.71 1006 10 16 0.00 0.00
7:54 pm 19:54 Cloudy 65 18.3 60 15.6 84 84 NW 13 20 29.68 1005 10 16 0.00 0.00
8:29 pm 20:29 Cloudy with Light Rain 63 17.2 60 15.6 90 90 WNW 12 19 29.69 1005 5 8 0.02 0.51
8:54 pm 20:54 Cloudy with Light Rain 63 17.2 59 15 87 87 NW 9 15 29.70 1006 5 8 0.05 1.27
9:54 pm 21:54 Cloudy with Mist and Fog 61 16.1 58 14.4 90 90 WNW 9 15 29.70 1006 6 10 0.00 0.00
10:39 pm 22:39 Cloudy with Rain 59 15 56 13.3 90 90 NW 10 17 29.69 1005 3 4 0.06 1.52
10:54 pm 22:54 Cloudy with Rain 58 14.4 55 12.8 90 90 W 9 15 29.71 1006 3 4 0.11 2.79
11:29 pm 23:29 Cloudy with Heavy Rain 57 13.9 54 12.2 90 90 NW 8 13 29.71 1006 3 4 0.24 6.10
11:54 pm 23:54 Cloudy with Rain 57 13.9 54 12.2 90 90 WNW 10 17 29.70 1006 3 4 0.33 8.38

Powered by AerisWeather